Precipitable_Water
0.41 0.40 0.44 0.45 0.47 0.48 0.49 0.54 0.56 0.58 0.61 0.63 0.64 0.65 0.65 0.65 0.66 0.66 0.67 0.67 0.66 0.69 0.75 0.84 0.90 0.93 0.99 1.14 1.33 1.44 1.50 1.46 1.41 1.32 1.30 1.36 1.29 1.25 1.28 1.21 1.22 1.23 1.18 1.03 0.97 0.82 0.70 0.63 0.69 0.79 0.80 0.78 0.77 0.76 0.74 0.71 0.70 0.69 0.67 0.62 0.57 0.58 0.55
0.45 0.43 0.45 0.46 0.45 0.48 0.46 0.48 0.52 0.57 0.58 0.61 0.64 0.64 0.65 0.65 0.65 0.64 0.64 0.64 0.63 0.63 0.66 0.69 0.76 0.83 0.86 0.96 1.14 1.24 1.28 1.39 1.44 1.42 1.39 1.36 1.39 1.34 1.31 1.27 1.26 1.22 1.19 1.14 1.05 0.93 0.77 0.68 0.65 0.68 0.71 0.77 0.76 0.75 0.76 0.75 0.74 0.75 0.74 0.69 0.62 0.62 0.58
0.47 0.46 0.45 0.43 0.44 0.44 0.44 0.47 0.48 0.49 0.54 0.57 0.60 0.63 0.64 0.65 0.65 0.65 0.64 0.63 0.63 0.64 0.64 0.64 0.68 0.72 0.78 0.85 0.91 0.98 1.09 1.16 1.34 1.43 1.39 1.37 1.36 1.38 1.39 1.34 1.27 1.26 1.24 1.17 1.10 1.01 0.90 0.83 0.68 0.67 0.74 0.66 0.58 0.64 0.72 0.71 0.74 0.77 0.76 0.75 0.67 0.65 0.67
0.47 0.46 0.45 0.44 0.44 0.43 0.40 0.41 0.46 0.49 0.51 0.52 0.56 0.59 0.62 0.63 0.64 0.66 0.65 0.64 0.65 0.64 0.63 0.64 0.64 0.66 0.71 0.77 0.84 0.88 0.90 0.96 1.02 1.18 1.31 1.37 1.38 1.38 1.38 1.35 1.33 1.31 1.26 1.16 1.12 1.09 0.99 0.86 0.77 0.74 0.75 0.73 0.67 0.62 0.67 0.71 0.72 0.75 0.79 0.78 0.72 0.68 0.75
0.47 0.47 0.45 0.44 0.44 0.42 0.41 0.40 0.41 0.43 0.46 0.51 0.54 0.55 0.57 0.61 0.63 0.64 0.67 0.66 0.65 0.64 0.62 0.64 0.66 0.68 0.70 0.75 0.81 0.86 0.89 0.92 0.98 1.08 1.15 1.19 1.31 1.36 1.38 1.39 1.36 1.35 1.34 1.29 1.25 1.20 1.10 0.98 0.89 0.82 0.77 0.77 0.75 0.68 0.72 0.72 0.73 0.73 0.75 0.78 0.75 0.70 0.77
0.48 0.48 0.47 0.47 0.47 0.45 0.44 0.42 0.40 0.39 0.40 0.42 0.47 0.51 0.55 0.59 0.60 0.61 0.62 0.64 0.65 0.66 0.66 0.65 0.64 0.65 0.67 0.69 0.74 0.80 0.85 0.88 0.94 1.01 1.12 1.20 1.27 1.32 1.34 1.37 1.36 1.39 1.37 1.41 1.37 1.27 1.21 1.10 1.01 0.90 0.84 0.81 0.71 0.70 0.71 0.75 0.68 0.70 0.76 0.75 0.83 0.75 0.76
0.48 0.48 0.48 0.48 0.48 0.48 0.48 0.45 0.42 0.41 0.39 0.39 0.40 0.44 0.51 0.56 0.59 0.61 0.62 0.63 0.65 0.68 0.69 0.67 0.66 0.66 0.66 0.66 0.66 0.71 0.79 0.87 0.91 0.93 0.99 1.10 1.26 1.35 1.34 1.30 1.33 1.37 1.39 1.41 1.42 1.38 1.25 1.14 1.01 0.93 0.89 0.84 0.79 0.72 0.74 0.76 0.76 0.65 0.70 0.77 0.86 0.83 0.80
0.48 0.48 0.49 0.49 0.49 0.48 0.49 0.47 0.47 0.45 0.42 0.42 0.42 0.43 0.46 0.48 0.53 0.57 0.59 0.60 0.61 0.63 0.66 0.68 0.69 0.67 0.66 0.66 0.65 0.67 0.71 0.80 0.84 0.88 0.90 0.96 1.05 1.19 1.26 1.20 1.15 1.19 1.35 1.44 1.44 1.40 1.37 1.26 1.15 1.02 0.93 0.84 0.80 0.79 0.72 0.77 0.76 0.68 0.66 0.74 0.86 0.87 0.92
0.47 0.48 0.48 0.49 0.50 0.50 0.49 0.48 0.48 0.48 0.47 0.45 0.45 0.44 0.45 0.45 0.47 0.50 0.55 0.57 0.60 0.62 0.65 0.69 0.71 0.71 0.70 0.67 0.65 0.64 0.64 0.71 0.74 0.80 0.88 1.00 1.06 1.07 1.09 1.18 1.15 1.08 1.18 1.35 1.44 1.43 1.43 1.37 1.30 1.19 1.03 0.91 0.82 0.75 0.75 0.69 0.72 0.72 0.77 0.71 0.74 0.81 0.84
0.47 0.47 0.48 0.48 0.48 0.50 0.50 0.49 0.49 0.50 0.51 0.49 0.47 0.46 0.45 0.46 0.46 0.48 0.50 0.54 0.58 0.62 0.64 0.67 0.70 0.71 0.72 0.72 0.69 0.66 0.64 0.67 0.69 0.71 0.79 0.81 0.88 0.92 0.96 1.02 1.08 1.13 1.11 1.23 1.38 1.43 1.43 1.43 1.38 1.32 1.19 1.01 0.93 0.81 0.75 0.70 0.70 0.70 0.79 0.81 0.65 0.68 0.76
0.48 0.49 0.49 0.49 0.50 0.49 0.49 0.49 0.49 0.49 0.50 0.51 0.50 0.47 0.46 0.46 0.46 0.46 0.48 0.51 0.54 0.58 0.60 0.63 0.66 0.72 0.74 0.73 0.73 0.72 0.70 0.69 0.66 0.70 0.75 0.80 0.82 0.88 0.94 0.99 1.02 1.05 1.12 1.08 1.16 1.37 1.42 1.43 1.41 1.38 1.31 1.19 1.06 0.91 0.83 0.74 0.75 0.80 0.76 0.90 0.83 0.69 0.71
0.51 0.50 0.51 0.51 0.50 0.48 0.47 0.48 0.48 0.48 0.49 0.50 0.49 0.48 0.47 0.46 0.46 0.46 0.46 0.48 0.52 0.55 0.59 0.61 0.64 0.67 0.70 0.72 0.73 0.72 0.73 0.72 0.68 0.66 0.68 0.71 0.79 0.85 0.88 0.90 0.97 0.98 1.05 1.08 1.06 1.18 1.34 1.40 1.41 1.43 1.43 1.32 1.14 1.02 0.93 0.85 0.74 0.87 0.90 0.86 0.85 0.87 0.78
0.51 0.51 0.52 0.51 0.49 0.48 0.49 0.48 0.48 0.48 0.48 0.48 0.47 0.47 0.48 0.47 0.47 0.46 0.46 0.46 0.49 0.54 0.56 0.60 0.63 0.64 0.66 0.68 0.71 0.72 0.73 0.73 0.71 0.68 0.66 0.69 0.72 0.76 0.76 0.81 0.89 0.92 0.94 0.98 1.02 1.05 1.20 1.35 1.42 1.44 1.45 1.42 1.26 1.14 1.03 0.93 0.84 0.81 1.00 0.96 0.91 0.89 0.82
0.52 0.53 0.52 0.51 0.49 0.49 0.49 0.49 0.48 0.48 0.47 0.45 0.46 0.46 0.46 0.47 0.48 0.48 0.47 0.47 0.48 0.52 0.55 0.58 0.62 0.63 0.64 0.66 0.70 0.70 0.71 0.72 0.70 0.70 0.69 0.67 0.68 0.73 0.77 0.77 0.81 0.90 0.97 1.00 0.97 1.00 1.17 1.31 1.39 1.45 1.48 1.41 1.31 1.23 1.12 1.03 0.92 0.87 1.02 1.10 1.05 0.95 0.86
0.52 0.53 0.51 0.50 0.49 0.49 0.49 0.50 0.49 0.47 0.44 0.45 0.46 0.45 0.45 0.47 0.48 0.48 0.48 0.48 0.48 0.51 0.55 0.57 0.60 0.63 0.62 0.64 0.67 0.71 0.72 0.71 0.71 0.71 0.72 0.68 0.66 0.64 0.68 0.72 0.74 0.85 0.99 1.03 1.00 0.94 1.04 1.19 1.31 1.37 1.42 1.42 1.35 1.25 1.22 1.11 1.02 0.91 0.98 1.08 1.10 1.08 0.93
0.52 0.51 0.50 0.49 0.48 0.49 0.50 0.50 0.49 0.46 0.45 0.45 0.45 0.45 0.46 0.47 0.48 0.49 0.48 0.49 0.49 0.50 0.53 0.56 0.60 0.62 0.62 0.63 0.64 0.67 0.71 0.72 0.71 0.71 0.71 0.71 0.71 0.68 0.64 0.65 0.72 0.73 0.83 0.93 0.99 1.00 0.98 1.08 1.20 1.30 1.37 1.45 1.37 1.29 1.27 1.20 1.08 0.97 1.03 1.04 1.07 0.96 0.93
0.51 0.51 0.49 0.50 0.50 0.50 0.50 0.49 0.49 0.47 0.47 0.46 0.45 0.46 0.47 0.47 0.48 0.48 0.48 0.48 0.49 0.50 0.52 0.55 0.57 0.60 0.62 0.63 0.63 0.64 0.68 0.71 0.73 0.73 0.73 0.73 0.75 0.73 0.68 0.62 0.64 0.75 0.83 0.91 0.99 1.05 1.06 1.03 1.10 1.22 1.30 1.36 1.35 1.31 1.28 1.25 1.15 1.04 1.09 1.03 1.02 0.97 0.98
0.51 0.50 0.50 0.50 0.50 0.50 0.49 0.48 0.48 0.47 0.47 0.47 0.48 0.48 0.48 0.49 0.48 0.48 0.47 0.47 0.48 0.49 0.51 0.54 0.56 0.57 0.60 0.63 0.64 0.65 0.66 0.69 0.72 0.74 0.75 0.75 0.76 0.77 0.73 0.67 0.62 0.64 0.75 0.79 0.84 1.07 1.12 1.05 1.10 1.19 1.22 1.26 1.33 1.29 1.25 1.23 1.19 1.10 1.10 1.07 1.05 1.01 0.99
0.51 0.51 0.51 0.50 0.50 0.49 0.49 0.48 0.48 0.49 0.50 0.49 0.49 0.50 0.49 0.49 0.50 0.49 0.49 0.49 0.49 0.48 0.50 0.52 0.54 0.56 0.58 0.61 0.63 0.64 0.66 0.67 0.69 0.73 0.76 0.76 0.76 0.78 0.77 0.74 0.69 0.66 0.67 0.73 0.80 0.90 1.07 1.08 1.08 1.13 1.17 1.20 1.26 1.30 1.27 1.23 1.21 1.14 1.16 1.11 1.04 1.00 1.02
0.51 0.51 0.51 0.50 0.50 0.50 0.49 0.50 0.49 0.49 0.51 0.50 0.50 0.50 0.51 0.51 0.52 0.52 0.52 0.52 0.50 0.49 0.49 0.49 0.51 0.54 0.56 0.59 0.61 0.63 0.64 0.66 0.67 0.70 0.74 0.77 0.77 0.78 0.80 0.78 0.74 0.69 0.66 0.68 0.74 0.80 0.97 1.16 1.18 1.06 1.01 1.15 1.22 1.25 1.24 1.22 1.21 1.16 1.14 1.14 1.06 1.05 1.03
0.51 0.51 0.51 0.50 0.50 0.51 0.50 0.50 0.49 0.50 0.51 0.50 0.50 0.51 0.51 0.52 0.54 0.55 0.55 0.55 0.54 0.53 0.51 0.50 0.49 0.50 0.54 0.56 0.59 0.60 0.63 0.64 0.65 0.67 0.72 0.77 0.78 0.78 0.79 0.80 0.79 0.73 0.66 0.65 0.75 0.81 0.86 0.99 1.13 1.10 1.03 1.11 1.20 1.18 1.21 1.25 1.22 1.19 1.13 1.14 1.07 1.04 1.05
0.51 0.51 0.51 0.51 0.50 0.49 0.49 0.49 0.49 0.50 0.51 0.52 0.53 0.53 0.54 0.54 0.54 0.54 0.56 0.56 0.56 0.56 0.53 0.52 0.51 0.50 0.49 0.52 0.56 0.58 0.60 0.61 0.62 0.64 0.68 0.74 0.78 0.79 0.80 0.81 0.81 0.78 0.70 0.66 0.71 0.81 0.83 0.94 1.12 1.12 1.11 1.10 1.20 1.23 1.19 1.20 1.25 1.20 1.14 1.11 1.08 1.10 1.03
0.50 0.50 0.51 0.50 0.49 0.48 0.48 0.49 0.50 0.50 0.52 0.53 0.54 0.55 0.55 0.55 0.55 0.54 0.54 0.55 0.56 0.56 0.55 0.55 0.54 0.55 0.54 0.52 0.53 0.56 0.58 0.59 0.60 0.62 0.64 0.69 0.73 0.77 0.80 0.81 0.82 0.80 0.74 0.67 0.68 0.74 0.78 0.82 0.96 1.17 1.17 1.12 1.16 1.23 1.22 1.17 1.19 1.19 1.16 1.11 1.08 1.05 0.97
0.49 0.50 0.50 0.49 0.48 0.48 0.49 0.50 0.51 0.52 0.53 0.54 0.55 0.55 0.55 0.54 0.54 0.55 0.54 0.54 0.55 0.56 0.56 0.56 0.56 0.56 0.56 0.57 0.55 0.54 0.55 0.57 0.59 0.60 0.62 0.66 0.70 0.73 0.78 0.81 0.83 0.82 0.77 0.69 0.67 0.68 0.74 0.76 0.82 1.00 1.18 1.18 1.19 1.26 1.22 1.16 1.16 1.18 1.18 1.15 1.13 1.09 0.99
0.50 0.50 0.49 0.48 0.48 0.48 0.49 0.50 0.50 0.52 0.53 0.54 0.55 0.56 0.55 0.54 0.55 0.55 0.55 0.54 0.54 0.54 0.55 0.57 0.57 0.57 0.57 0.57 0.57 0.56 0.54 0.54 0.57 0.59 0.61 0.65 0.70 0.74 0.76 0.80 0.83 0.84 0.81 0.75 0.67 0.68 0.71 0.76 0.80 0.90 1.09 1.23 1.22 1.25 1.32 1.26 1.20 1.21 1.23 1.20 1.15 1.11 1.02
0.49 0.48 0.48 0.48 0.47 0.47 0.48 0.48 0.50 0.51 0.53 0.55 0.56 0.54 0.55 0.55 0.55 0.55 0.54 0.52 0.52 0.53 0.54 0.56 0.56 0.57 0.58 0.58 0.58 0.57 0.55 0.53 0.54 0.56 0.60 0.65 0.71 0.74 0.76 0.79 0.80 0.82 0.82 0.79 0.72 0.68 0.72 0.73 0.80 0.88 1.07 1.14 1.21 1.25 1.30 1.38 1.42 1.34 1.28 1.22 1.17 1.10 1.04
0.47 0.47 0.47 0.46 0.45 0.45 0.45 0.46 0.49 0.52 0.53 0.54 0.54 0.54 0.55 0.55 0.55 0.54 0.53 0.52 0.51 0.52 0.52 0.54 0.56 0.56 0.58 0.58 0.58 0.57 0.55 0.54 0.53 0.54 0.57 0.61 0.69 0.75 0.77 0.79 0.79 0.78 0.80 0.80 0.78 0.74 0.73 0.75 0.75 0.80 0.94 1.09 1.12 1.14 1.23 1.40 1.42 1.40 1.37 1.28 1.19 1.08 1.07
0.46 0.46 0.46 0.45 0.44 0.44 0.45 0.48 0.50 0.52 0.53 0.53 0.53 0.53 0.54 0.54 0.54 0.54 0.53 0.52 0.51 0.51 0.52 0.54 0.55 0.56 0.57 0.57 0.58 0.58 0.56 0.54 0.53 0.53 0.57 0.60 0.64 0.72 0.78 0.81 0.80 0.79 0.79 0.79 0.80 0.79 0.76 0.75 0.75 0.73 0.82 0.95 1.12 1.19 1.26 1.35 1.40 1.39 1.35 1.34 1.25 1.19 1.16
0.45 0.45 0.44 0.43 0.43 0.44 0.46 0.49 0.51 0.53 0.54 0.54 0.55 0.55 0.55 0.55 0.53 0.53 0.53 0.53 0.52 0.51 0.53 0.55 0.56 0.56 0.57 0.57 0.58 0.58 0.57 0.54 0.52 0.53 0.56 0.60 0.63 0.69 0.76 0.82 0.81 0.80 0.80 0.81 0.79 0.82 0.82 0.80 0.78 0.73 0.76 0.94 1.04 1.14 1.24 1.31 1.37 1.41 1.37 1.30 1.26 1.22 1.20
0.44 0.44 0.43 0.43 0.43 0.44 0.47 0.50 0.52 0.54 0.53 0.53 0.53 0.53 0.53 0.52 0.52 0.52 0.52 0.53 0.53 0.52 0.54 0.56 0.57 0.57 0.57 0.57 0.57 0.57 0.57 0.55 0.53 0.52 0.54 0.59 0.64 0.68 0.74 0.80 0.83 0.82 0.82 0.81 0.83 0.84 0.84 0.82 0.78 0.76 0.73 0.82 0.97 1.06 1.11 1.21 1.28 1.36 1.35 1.30 1.25 1.22 1.23
0.44 0.44 0.43 0.42 0.43 0.46 0.50 0.52 0.52 0.54 0.53 0.52 0.52 0.52 0.52 0.51 0.52 0.53 0.53 0.54 0.55 0.54 0.55 0.58 0.59 0.58 0.57 0.56 0.57 0.58 0.58 0.56 0.54 0.53 0.55 0.59 0.63 0.68 0.72 0.77 0.83 0.86 0.84 0.83 0.85 0.87 0.86 0.81 0.76 0.73 0.70 0.76 0.86 0.95 1.05 1.13 1.19 1.28 1.27 1.27 1.22 1.21 1.22
0.45 0.43 0.42 0.43 0.45 0.47 0.51 0.51 0.53 0.54 0.54 0.54 0.53 0.53 0.52 0.52 0.52 0.54 0.56 0.56 0.57 0.57 0.57 0.58 0.60 0.59 0.58 0.57 0.58 0.59 0.59 0.59 0.56 0.55 0.56 0.57 0.63 0.68 0.72 0.77 0.81 0.86 0.87 0.88 0.88 0.87 0.86 0.83 0.76 0.70 0.65 0.71 0.79 0.85 0.94 1.02 1.08 1.15 1.16 1.16 1.17 1.19 1.14
0.45 0.45 0.43 0.43 0.46 0.50 0.53 0.53 0.53 0.54 0.54 0.54 0.53 0.53 0.53 0.54 0.54 0.56 0.58 0.58 0.58 0.59 0.58 0.59 0.61 0.61 0.59 0.58 0.59 0.61 0.62 0.59 0.57 0.56 0.58 0.59 0.61 0.67 0.72 0.77 0.83 0.86 0.87 0.90 0.89 0.88 0.86 0.82 0.74 0.67 0.67 0.71 0.77 0.81 0.91 0.95 1.05 1.12 1.13 1.14 1.13 1.11 1.06
0.44 0.44 0.43 0.43 0.48 0.52 0.54 0.54 0.54 0.54 0.53 0.54 0.54 0.54 0.55 0.57 0.58 0.59 0.59 0.59 0.60 0.61 0.61 0.61 0.62 0.62 0.61 0.61 0.62 0.63 0.63 0.62 0.62 0.61 0.61 0.62 0.64 0.67 0.72 0.77 0.86 0.88 0.87 0.88 0.90 0.89 0.87 0.83 0.77 0.70 0.69 0.72 0.81 0.89 0.94 0.95 1.02 1.12 1.13 1.13 1.10 1.03 1.00
0.43 0.42 0.42 0.45 0.49 0.52 0.55 0.56 0.55 0.55 0.54 0.53 0.53 0.56 0.59 0.60 0.60 0.60 0.60 0.60 0.61 0.61 0.64 0.65 0.65 0.65 0.66 0.66 0.67 0.67 0.65 0.66 0.68 0.67 0.65 0.67 0.69 0.72 0.76 0.81 0.85 0.90 0.91 0.89 0.89 0.89 0.89 0.88 0.83 0.74 0.73 0.79 0.87 0.92 0.93 0.97 1.06 1.10 1.13 1.12 1.06 0.99 0.98
0.40 0.40 0.41 0.46 0.50 0.52 0.54 0.55 0.55 0.55 0.53 0.53 0.54 0.57 0.60 0.61 0.61 0.60 0.60 0.61 0.63 0.64 0.67 0.68 0.69 0.70 0.71 0.72 0.72 0.73 0.72 0.73 0.74 0.74 0.71 0.70 0.73 0.77 0.81 0.84 0.87 0.89 0.92 0.91 0.90 0.90 0.89 0.88 0.84 0.75 0.71 0.74 0.84 0.91 0.94 0.98 1.05 1.09 1.10 1.07 1.02 0.95 0.96
0.37 0.39 0.42 0.46 0.50 0.52 0.54 0.55 0.55 0.54 0.53 0.53 0.55 0.57 0.60 0.61 0.61 0.60 0.59 0.61 0.64 0.67 0.70 0.71 0.73 0.75 0.77 0.78 0.78 0.79 0.79 0.79 0.79 0.78 0.78 0.77 0.79 0.81 0.82 0.84 0.86 0.89 0.91 0.92 0.91 0.89 0.88 0.86 0.78 0.71 0.69 0.71 0.78 0.87 0.91 0.95 1.01 1.04 1.06 1.04 0.97 0.95 0.96
Wind_Speed
19 19 20 21 21 22 23 24 25 25 26 26 27 28 29 30 30 31 32 33 34 35 35 35 36 38 38 37 37 37 38 39 39 39 40 38 36 36 36 36 35 33 32 31 30 29 29 29 30 32 33 33 33 32 31 31 30 30 29 29 29 29 29
19 20 21 21 22 22 23 24 25 25 26 27 27 28 29 29 30 31 32 33 34 35 36 36 37 37 38 39 39 38 38 39 39 40 41 41 38 37 36 36 36 36 35 34 33 32 31 30 30 30 32 33 33 33 32 31 30 30 29 29 28 28 28
20 21 21 22 23 23 24 24 25 26 27 27 28 29 29 30 30 31 32 33 34 35 36 37 38 38 38 39 40 40 39 40 39 39 41 43 42 39 37 37 37 36 36 35 35 34 34 33 32 30 31 32 32 32 32 32 31 30 30 29 28 27 27
22 22 22 22 23 24 24 25 25 26 27 28 29 29 30 31 31 31 32 33 33 34 36 37 38 39 39 39 40 40 40 41 41 40 40 43 44 43 40 38 38 37 36 36 35 35 35 34 33 32 31 32 32 32 32 32 32 31 30 29 28 28 27
23 23 23 23 24 24 25 25 26 27 27 28 29 29 30 31 32 32 32 33 33 34 35 37 38 39 40 40 40 40 41 41 42 42 41 42 44 46 43 40 39 38 37 36 36 35 35 34 33 33 32 32 32 32 32 32 32 32 31 30 29 29 28
24 24 24 25 25 25 25 26 27 27 28 29 29 30 31 31 32 32 33 33 34 34 35 36 37 39 40 41 41 41 41 41 42 43 43 43 43 45 45 42 41 40 38 37 36 36 35 34 34 33 33 32 31 31 31 31 32 32 32 31 30 29 29
25 25 25 26 26 26 26 26 27 28 29 30 30 31 32 32 33 33 34 34 35 35 36 36 37 38 40 41 42 42 42 42 42 42 43 43 42 43 44 43 42 41 41 39 38 37 36 36 35 34 32 32 31 31 31 31 32 32 32 32 31 30 30
26 26 26 26 27 27 27 27 28 29 29 30 31 32 33 33 34 34 35 35 36 36 36 37 37 38 39 41 42 43 43 43 43 43 43 43 43 44 45 45 44 43 42 41 40 39 38 37 36 35 33 32 32 31 31 32 32 33 33 32 31 31 30
27 27 27 27 27 28 28 28 29 29 30 31 32 32 33 34 35 35 35 36 36 37 37 37 37 37 38 39 41 43 44 44 44 44 44 44 44 44 45 46 46 45 44 42 41 41 40 38 37 37 36 34 33 32 31 32 32 33 34 33 32 31 31
27 28 28 28 28 28 29 29 30 30 30 31 32 33 34 35 35 36 36 36 37 37 38 38 38 38 38 39 40 41 43 45 45 45 45 45 45 45 45 46 46 46 45 44 43 42 41 40 39 39 38 36 35 33 32 32 32 32 34 34 33 33 32
28 28 29 29 29 29 29 30 30 31 31 32 32 33 34 35 35 36 36 37 37 38 38 39 39 39 39 39 40 41 42 43 45 46 46 46 46 46 46 46 46 47 46 46 45 44 42 41 41 40 39 38 37 36 34 33 32 32 33 34 33 33 33
28 29 29 30 30 30 30 31 31 32 32 32 33 33 34 34 35 36 36 37 37 38 38 39 39 39 40 40 40 40 41 42 44 46 47 47 47 47 48 48 47 47 47 47 47 46 45 43 43 41 40 39 38 38 37 36 34 33 33 33 34 33 33
29 30 30 30 31 31 31 32 32 32 32 33 33 34 34 34 35 36 36 37 37 38 38 39 39 40 40 40 40 41 41 42 43 45 47 47 48 48 49 49 49 48 47 47 47 48 47 45 44 43 40 39 39 38 37 37 36 34 33 34 34 34 33
30 31 31 31 32 32 32 32 33 33 33 33 34 34 35 35 35 36 37 37 38 38 39 39 39 40 40 41 41 42 42 42 43 44 46 48 48 49 49 50 50 49 48 48 48 48 48 48 46 44 42 40 39 39 38 37 37 36 34 34 34 34 34
31 31 32 32 33 33 32 32 33 33 33 33 34 35 35 35 36 36 37 38 38 39 39 40 40 41 41 42 42 42 42 43 44 44 45 47 48 49 50 50 51 50 49 49 49 48 49 49 48 46 44 42 41 40 39 38 38 37 35 34 34 33 33
32 32 33 33 33 33 33 33 33 34 34 34 34 35 35 36 36 37 37 38 39 40 41 41 42 42 42 43 43 43 43 44 44 45 45 46 47 49 50 50 51 51 50 50 50 49 49 49 49 48 46 44 42 41 39 39 39 38 36 35 35 34 34
32 33 33 34 34 33 34 34 34 34 34 34 35 35 35 36 37 37 38 39 40 41 42 42 43 43 43 44 44 44 44 44 45 45 46 46 46 48 50 51 51 50 51 51 51 49 49 50 49 49 48 46 44 42 40 39 39 39 37 36 35 34 34
33 33 34 34 34 34 34 34 34 34 34 35 35 36 36 37 37 38 39 40 40 41 42 43 44 44 45 45 45 45 45 46 46 46 46 46 47 47 49 50 51 50 51 52 52 50 49 50 50 50 49 47 45 43 41 40 40 39 38 37 35 34 34
33 34 34 34 34 34 34 34 34 35 35 36 36 37 37 38 38 39 40 41 41 42 43 44 45 45 46 46 46 46 46 46 47 47 47 47 47 47 48 49 50 51 51 52 53 52 51 50 50 51 50 48 45 43 42 41 40 39 38 37 35 34 34
34 34 34 34 34 34 35 35 35 36 36 37 37 38 38 38 39 40 40 41 42 43 44 45 45 46 46 46 46 46 46 46 47 48 48 48 47 48 48 49 50 51 51 52 53 53 53 51 50 51 51 49 47 45 42 41 40 40 39 37 35 35 35
33 34 34 34 34 35 35 35 36 36 37 37 38 38 38 39 39 40 41 42 42 43 44 44 45 46 46 46 46 46 46 46 47 47 48 48 48 48 48 49 50 51 52 52 52 52 54 53 50 50 51 50 49 47 44 42 40 40 40 37 36 35 35
33 33 34 34 34 35 35 36 36 37 38 38 38 38 39 39 40 40 41 42 43 43 44 44 45 46 46 46 46 46 46 46 47 47 47 48 48 48 48 49 49 51 52 52 52 52 53 54 52 50 50 51 51 48 46 44 42 40 40 38 37 36 35
33 33 34 34 35 35 36 36 37 38 38 38 38 39 39 40 40 41 42 43 43 44 44 45 46 46 46 46 46 46 45 45 46 46 47 47 48 48 48 48 49 50 52 52 52 52 53 54 54 52 51 51 52 50 47 46 44 42 40 38 37 37 35
33 33 34 34 35 35 36 36 37 38 38 38 39 39 40 40 41 42 42 43 44 44 45 46 46 47 47 47 47 47 46 45 45 45 46 46 47 47 47 48 48 49 51 52 53 52 52 54 55 54 53 53 53 52 49 47 46 44 42 39 38 38 36
32 33 33 34 34 35 35 36 37 37 38 38 39 40 40 41 42 42 43 44 44 45 45 46 47 47 47 48 48 48 47 46 45 45 45 45 46 46 46 47 47 47 49 51 52 52 52 53 54 54 54 54 54 54 52 49 47 46 44 42 39 39 38
32 33 33 33 34 34 35 36 36 37 38 39 39 40 41 42 42 43 43 44 45 45 46 46 47 47 48 48 48 48 48 48 47 46 45 45 44 45 45 46 46 46 48 50 51 52 52 52 53 54 54 54 55 55 53 51 49 48 46 44 42 41 39
32 32 33 33 34 34 35 36 36 37 38 39 40 41 42 43 43 43 44 44 45 46 46 47 47 47 47 48 48 49 48 48 48 47 46 46 45 44 45 45 45 45 47 48 49 51 51 52 52 53 53 53 54 54 53 52 50 49 47 46 44 43 41
31 32 32 32 33 34 34 35 36 37 38 39 40 41 42 42 43 44 44 44 45 45 46 46 46 47 47 47 48 48 49 49 48 48 47 47 46 45 44 45 45 44 45 47 48 49 50 51 51 52 53 52 53 53 52 51 50 49 48 46 45 44 42
31 31 31 32 33 33 34 35 36 37 37 38 39 40 41 42 43 43 44 44 44 44 44 44 45 46 46 47 47 47 48 48 48 48 47 47 47 46 45 45 44 44 44 46 47 48 49 50 50 51 52 51 51 52 51 49 48 48 48 46 44 43 41
30 30 31 32 32 33 34 35 35 36 37 37 38 39 40 41 42 42 43 43 43 42 42 42 43 44 45 46 46 47 47 48 48 48 48 47 46 46 46 46 44 43 43 44 45 47 48 49 49 50 51 51 51 51 50 49 47 46 46 45 43 42 41
30 30 31 31 32 33 34 35 35 35 36 37 38 39 39 40 40 41 41 41 41 41 41 40 41 42 43 45 46 46 46 46 47 47 47 47 46 46 47 47 46 44 43 43 44 45 47 48 49 50 51 51 51 51 50 49 47 45 44 43 42 41 40
29 29 30 31 31 32 33 34 34 34 34 36 37 37 38 38 38 38 38 38 38 39 39 38 39 41 42 43 45 45 44 45 46 46 46 46 46 45 46 47 47 45 44 42 42 44 46 48 49 50 51 51 51 52 51 50 48 46 45 43 42 41 40
28 28 29 30 30 31 32 33 32 33 34 35 36 36 36 36 36 35 34 34 35 35 36 36 36 39 41 42 43 43 43 43 44 45 45 45 44 45 45 46 46 46 45 43 42 43 45 47 48 49 51 51 51 51 51 50 48 47 45 43 42 41 41
27 27 28 28 28 29 31 31 31 32 34 34 35 35 34 33 33 32 31 31 32 33 33 33 34 36 38 40 41 42 42 42 43 43 44 44 44 44 44 45 45 45 45 44 42 42 43 46 47 48 50 51 50 50 50 49 48 46 45 43 42 41 40
26 26 27 27 27 28 30 30 30 32 33 33 33 32 31 30 29 29 29 29 30 30 31 31 32 33 36 38 39 40 41 41 41 42 42 43 43 43 43 44 44 43 43 44 43 42 42 44 46 47 48 49 49 49 49 48 47 46 44 43 42 41 41
25 25 26 26 26 27 28 29 29 31 31 31 30 29 27 26 26 26 27 27 28 27 27 28 29 31 33 35 37 38 39 39 39 40 41 42 42 42 42 42 42 42 42 42 43 43 42 44 45 46 47 48 49 49 49 48 46 45 44 43 42 41 41
24 24 24 24 25 26 27 27 28 29 29 28 27 25 25 24 23 24 24 25 25 24 23 24 26 28 30 32 34 35 36 37 37 39 40 40 41 41 41 40 40 40 41 41 42 42 42 43 45 46 47 48 48 49 49 48 46 44 43 43 42 41 40
Wind_Direction
279 279 277 275 273 270 267 267 265 264 262 259 257 255 253 252 251 250 249 248 247 247 246 245 244 244 243 243 243 242 240 238 237 236 233 231 232 232 232 233 234 236 237 237 237 237 239 239 238 238 238 237 237 237 237 237 238 238 239 239 240 241 242
279 280 279 277 275 273 270 267 265 264 263 261 260 258 256 254 253 252 251 250 248 248 247 246 245 245 244 244 243 243 243 241 240 237 232 231 232 233 233 233 233 235 237 238 238 237 239 240 240 239 237 236 236 237 237 237 237 237 238 239 239 240 240
279 279 279 278 277 275 273 270 267 264 263 262 261 260 258 256 255 254 252 251 250 249 248 246 246 246 245 244 244 244 243 243 242 240 234 233 233 233 234 234 233 234 236 237 237 238 239 239 241 240 237 235 235 236 236 236 236 237 237 238 238 239 239
278 278 278 278 277 276 274 272 269 266 264 263 262 261 260 258 256 255 254 252 251 250 249 248 247 246 245 245 245 244 244 243 243 241 238 236 235 233 234 235 234 234 236 237 236 237 238 239 239 240 239 237 236 236 235 235 236 236 236 237 237 238 238
277 277 277 277 276 275 274 273 271 269 267 264 263 262 261 260 258 256 255 253 252 251 249 248 247 247 246 245 245 245 244 243 243 241 239 238 237 234 233 235 235 235 236 237 237 236 237 238 238 239 238 237 237 237 235 234 235 235 236 236 236 236 237
276 276 277 276 276 275 274 273 272 270 269 267 264 263 262 261 260 258 256 255 253 252 251 250 248 247 247 245 245 245 245 244 243 241 240 240 238 235 233 235 236 235 236 237 237 236 236 237 237 238 238 236 237 237 235 234 234 235 235 236 235 235 236
276 276 276 276 276 275 274 273 272 270 269 268 267 265 263 262 261 259 259 257 255 254 252 251 250 248 247 246 245 245 245 244 243 242 241 240 238 235 234 235 236 236 237 238 237 237 237 236 236 236 237 237 236 236 236 235 235 235 234 235 235 234 235
275 276 276 276 276 276 275 274 273 271 269 268 267 267 265 263 261 260 259 258 257 256 254 252 251 249 248 247 246 245 244 244 244 243 242 240 238 237 235 236 238 238 238 238 237 236 236 236 237 236 236 237 236 235 236 235 235 234 233 234 235 235 235
274 275 276 276 276 276 276 275 274 272 271 269 268 267 266 264 263 261 260 259 258 257 255 253 252 251 249 248 247 246 244 244 244 243 242 240 239 238 238 238 238 238 238 238 238 237 236 236 238 237 236 237 237 236 236 236 235 235 234 233 235 235 235
274 275 276 276 277 277 277 276 275 274 272 271 269 267 266 264 263 262 261 260 259 257 256 255 253 252 251 249 248 247 245 244 244 243 242 241 240 239 239 238 238 238 238 238 237 237 236 236 237 237 237 237 238 238 237 236 236 236 235 233 234 235 235
274 275 275 276 277 277 277 277 276 275 274 273 271 269 266 264 263 262 261 260 259 258 257 255 254 253 252 251 249 248 246 245 244 243 243 242 241 240 239 238 238 238 237 237 237 236 236 236 235 237 237 237 237 238 238 238 237 236 235 233 233 235 235
274 275 276 277 277 278 278 278 277 276 275 274 272 270 267 265 263 261 261 260 260 258 257 256 255 253 252 251 250 249 247 246 244 243 242 242 242 241 240 239 238 238 238 238 237 236 237 236 235 235 237 237 237 237 238 239 239 237 235 233 234 234 234
275 276 277 277 278 278 278 278 277 276 275 274 272 270 268 266 264 262 261 260 259 258 257 256 255 253 252 251 251 249 248 246 245 244 243 242 242 242 240 239 238 238 238 238 237 236 236 236 234 233 235 237 237 236 237 238 239 239 236 234 235 234 233
276 277 277 277 278 278 278 277 277 276 274 273 272 271 269 267 265 263 262 260 259 258 257 256 255 254 252 252 251 250 249 247 246 245 244 242 242 242 241 240 239 238 237 237 237 236 234 234 233 232 233 237 237 236 235 236 238 238 236 235 235 234 233
277 277 277 278 278 278 277 276 276 275 274 273 271 270 269 268 266 264 263 261 260 259 257 256 255 254 253 252 251 250 249 248 246 245 245 243 242 242 241 241 239 237 236 237 237 236 234 233 232 232 233 236 237 236 235 235 236 237 235 234 234 233 233
278 278 278 279 279 278 277 276 276 275 274 273 271 270 269 268 266 265 263 262 260 259 258 257 256 255 254 252 251 250 249 248 247 246 245 244 243 242 241 241 240 238 236 236 236 236 234 233 232 232 233 235 236 235 234 234 235 235 234 233 234 234 234
278 279 279 279 279 278 278 277 276 275 274 273 272 270 269 268 267 266 264 263 260 259 258 257 256 255 254 253 252 251 250 249 248 246 245 244 243 242 241 240 240 238 236 235 236 235 234 232 232 232 232 233 235 234 234 234 234 235 234 233 233 234 234
279 279 279 279 279 279 278 278 276 275 274 273 272 271 270 269 268 266 265 264 262 260 258 257 256 255 254 254 253 252 250 249 248 247 245 244 243 242 242 240 240 239 237 235 234 234 233 232 231 231 231 232 233 233 233 233 233 234 234 232 230 232 233
279 280 280 279 279 279 278 277 276 275 274 273 272 271 270 269 268 267 267 265 263 261 259 257 256 255 254 253 253 252 251 249 248 247 246 245 243 243 242 241 239 239 238 236 234 233 233 232 231 230 230 230 231 232 232 232 232 233 233 231 229 230 232
280 280 280 280 280 279 278 277 276 275 275 274 273 271 270 269 268 268 268 267 265 263 261 258 256 255 254 253 252 252 251 249 248 247 246 244 243 243 242 241 239 238 237 236 234 233 232 231 230 230 229 228 229 231 231 231 231 231 231 230 230 230 231
281 281 281 281 280 279 278 276 276 276 276 275 274 272 271 270 269 268 268 267 266 264 262 259 257 255 254 252 251 251 250 249 248 247 246 244 243 242 241 240 239 238 237 236 235 233 231 231 231 230 229 227 227 229 229 229 230 231 230 230 230 229 230
282 281 281 281 281 280 278 277 277 277 277 276 275 273 272 271 269 269 268 267 266 264 262 260 258 256 254 253 251 250 249 249 247 246 245 244 243 242 241 240 239 237 236 235 234 233 231 230 230 229 228 226 225 227 228 228 230 230 229 228 228 228 228
282 282 281 281 281 280 279 278 278 278 278 277 275 274 273 271 270 269 268 267 266 264 262 260 258 256 255 253 251 250 248 247 246 245 244 243 242 240 240 239 238 237 235 234 234 233 231 230 230 230 228 226 225 226 227 227 227 228 228 227 227 227 228
282 282 282 282 281 281 280 280 279 279 278 277 276 274 273 272 271 270 269 268 266 264 262 260 258 256 254 252 251 249 247 246 245 244 243 242 241 240 239 238 238 236 235 234 233 233 232 230 229 229 228 226 225 226 226 226 226 227 227 226 226 227 228
283 283 283 283 283 282 282 281 281 280 279 278 277 276 274 273 272 271 270 268 267 264 262 260 258 256 253 251 250 248 247 245 244 243 242 241 240 239 238 237 237 236 235 233 232 232 231 230 229 228 227 226 225 225 226 226 226 226 225 226 227 228 229
285 285 285 284 284 284 284 284 283 282 281 280 278 277 276 274 273 272 271 269 267 265 262 260 258 256 253 251 248 246 246 244 242 242 241 240 239 238 237 237 236 236 234 233 232 231 230 229 228 227 226 226 225 225 226 227 226 226 225 226 228 229 230
286 286 286 286 286 287 287 286 286 284 283 282 280 279 278 276 275 274 272 270 268 265 263 260 258 255 253 250 247 245 244 243 241 241 240 239 238 237 237 236 236 235 234 232 231 230 229 229 227 226 225 225 224 224 225 226 226 226 227 228 229 230 231
288 287 287 288 289 289 289 289 288 286 285 283 282 281 280 278 277 275 273 272 269 266 263 261 258 255 251 248 245 243 242 242 240 239 239 238 236 236 236 236 235 235 233 232 230 229 228 228 226 225 224 223 223 222 223 224 224 225 227 229 230 230 231
289 289 289 290 291 291 292 292 290 289 287 285 283 282 281 279 277 276 275 273 270 267 264 260 257 254 250 246 244 242 241 240 239 238 237 237 235 234 234 234 234 234 233 232 230 228 227 226 225 223 222 221 220 220 221 222 223 224 226 228 229 229 229
290 290 291 292 292 293 294 293 292 290 288 286 285 284 282 280 279 277 275 273 270 267 264 260 257 253 248 244 242 241 239 239 238 237 235 235 235 233 232 232 233 233 232 232 229 227 226 224 223 221 220 219 219 219 219 220 220 222 223 225 226 226 225
291 292 293 293 294 295 296 295 294 292 289 288 287 286 285 283 281 278 275 272 269 266 263 260 256 251 247 242 240 239 238 237 237 236 234 234 234 233 231 231 231 232 232 231 229 226 224 222 222 220 218 218 218 217 218 218 218 220 221 223 223 223 223
293 293 294 295 296 297 298 297 296 294 292 291 290 289 287 285 282 279 275 271 268 265 263 260 256 250 245 241 238 237 237 236 235 235 234 232 232 231 230 230 230 231 231 230 228 225 223 221 221 220 218 217 217 217 217 217 218 219 221 222 222 222 222
293 294 295 297 298 299 300 299 298 297 297 295 293 292 290 287 284 281 276 271 268 265 264 261 255 247 243 239 236 236 236 235 234 233 232 231 230 229 229 229 229 229 229 229 227 225 223 221 220 219 218 217 217 217 217 217 217 218 220 221 221 220 220
295 296 297 298 299 300 302 302 302 302 301 299 297 295 293 289 286 282 277 272 270 268 265 262 254 246 241 238 235 234 234 234 233 231 230 229 228 228 228 228 228 228 227 226 225 224 223 221 219 219 218 217 216 216 215 216 216 216 217 218 218 217 217
297 298 299 300 301 302 304 305 306 306 304 303 301 300 297 292 288 284 279 275 273 270 266 260 253 245 240 237 234 233 233 233 231 229 227 227 227 227 227 227 227 226 225 223 223 223 222 220 219 218 217 215 214 213 214 214 214 215 215 216 215 215 215
300 300 301 303 303 305 307 307 308 309 309 307 305 303 300 296 291 288 283 279 276 272 265 258 253 246 240 237 234 232 231 230 229 227 226 227 227 226 226 225 225 225 223 222 222 222 222 220 218 216 215 213 212 211 212 212 212 212 213 213 213 213 213
302 302 304 305 306 308 310 310 311 313 313 311 307 304 304 302 298 293 288 283 279 275 267 258 253 246 239 235 232 229 228 227 226 225 225 226 226 224 223 223 223 223 223 222 221 221 220 218 216 214 212 211 210 210 211 210 210 211 212 211 211 211 211